Regional Weather Roundup
Issued by NWS

Home | Current Version | Previous Version | Text Only | Print | Product List | Glossary On
Versions: 1 2 3 4 5 6 7 8 9 10 11 12 13 14 15 16 17 18 19 20 21 22 23 24 25 26 27 28 29 30 31 32 33 34 35 36 37 38 39 40 41 42 43 44 45 46 47 48 49 50
000
ASUS43 KMPX 121910
RWRMN
WEATHER ROUNDUP FOR MINNESOTA
NATIONAL WEATHER SERVICE TWIN CITIES/CHANHASSEN MN
200 PM CDT SAT JUL 12 2014


NOTE: "FAIR" INDICATES FEW OR NO CLOUDS BELOW 12,000 FEET WITH NO
SIGNIFICANT WEATHER AND/OR OBSTRUCTIONS TO VISIBILITY. N/A MEANS
CURRENT SKY AND/OR WEATHER CONDITIONS ARE NOT AVAILABLE.

MNZ060>063-068>070-122000-
   Twin Cities Metro

CITY           SKY/WX    TMP DP  RH WIND       PRES   REMARKS
TWIN CITIES    RAIN      71  67  87 SW16      30.00R FOG
ST PAUL        HVY RAIN  71  66  84 SW17G23   30.00R
CRYSTAL        LGT RAIN  72  67  84 SW6       29.99R
BLAINE         LGT RAIN  75  72  88 SW7       29.99R
LAKEVILLE      RAIN      64  64 100 W6        30.03R
EDEN PRAIRIE   TSTM      68  66  94 S13       30.02R VSB 1/4
SOUTH ST PAUL  LGT RAIN  69  65  85 SW22G32   29.99R
LAKE ELMO      CLOUDY    72  70  94 NW10      29.99R
$$
MNZ001>005-007-008-013>017-022>024-027-028-122000-
   Northwest Minnesota

CITY           SKY/WX    TMP DP  RH WIND       PRES   REMARKS
BEMIDJI        CLOUDY    73  57  57 W12       29.98F
HALLOCK        MOSUNNY   79  54  41 W20G25    29.92F
ROSEAU         MOSUNNY   73  57  56 SW14G22   29.92F
WARROAD        MOSUNNY   75  61  60 W15G21    29.91F
THIEF RVR FALL PTSUNNY   73  55  53 W15       29.97F
CROOKSTON      PTSUNNY   75  57  53 W10G18    29.98F
FOSSTON        PTSUNNY   72  55  56 W10G16    30.00F
DETROIT LAKES  CLOUDY    73  57  56 W9        30.03F
MOORHEAD       CLOUDY    75  57  53 W9        30.01F
PARK RAPIDS    CLOUDY    73  58  59 W8        30.00F
$$
MNZ006-009>011-018-025>026-122000-
   North Central Minnesota

CITY           SKY/WX    TMP DP  RH WIND       PRES   REMARKS
BAUDETTE       PTSUNNY   74  55  51 SW13      29.93F
FLAG ISLAND    MOSUNNY   73  54  49 SW21G29   29.87F
INTL FALLS     CLOUDY    72  55  55 W9        29.93F
WASKISH        CLOUDY    73  59  60 SW9       29.96F
BIG FORK       CLOUDY    73  55  53 SW8       29.96F
LONGVILLE      CLOUDY    73  59  60 SW6       29.99F
GRAND RAPIDS   CLOUDY    72  55  56 SW9       29.98F
CRANE LAKE     PTSUNNY   72  55  56 NW3       29.95F
ORR            CLOUDY    73  54  49 W3        29.93F
COOK           CLOUDY    72  55  56 NW3       29.97S
$$
MNZ012-019>021-037-122000-
   Northeast Minnesota

CITY           SKY/WX    TMP DP  RH WIND       PRES   REMARKS
DULUTH         CLOUDY    73  57  57 W7        29.98S
ELY            CLOUDY    70  55  60 W7        29.96F
HIBBING        CLOUDY    73  55  53 W7        29.97F
EVELETH        CLOUDY    72  54  53 W7        29.98F
DULUTH HARBOR  CLOUDY    73  55  53 CALM      29.96S
TWO HARBORS    CLOUDY    72  59  64 CALM      29.94F
SILVER BAY     CLOUDY    72  61  68 SW6       29.94F
GRAND MARAIS     N/A     51  46  83 SW3       29.94F
G MARAIS ARPRT CLOUDY    66  55  68 S6        29.98S
$$
MNZ029>031-032-039>041-046>048-054>057-064-122000-
   West Central Minnesota

CITY           SKY/WX    TMP DP  RH WIND       PRES   REMARKS
FERGUS FALLS   CLOUDY    72  57  60 W8        30.02F
WHEATON        CLOUDY    72  63  73 W5        30.04F
MORRIS         DRIZZLE   70  63  78 W3        30.03F
ALEXANDRIA     CLOUDY    68  62  81 W9        30.05F
ELBOW LAKE     PTSUNNY   70  61  73 W6        30.03S
WADENA         CLOUDY    70  61  73 W6        30.01F
GLENWOOD       LGT RAIN  66  63  88 W7        30.05F
APPLETON       LGT RAIN  72  63  73 NW6       30.03F
BENSON         LGT RAIN  70  63  78 N8        30.04F
ORTONVILLE     LGT RAIN  70  63  78 CALM      30.03F
MADISON        LGT RAIN  72  64  78 NW5       30.04F
WILLMAR        DRIZZLE   72  63  73 NW14      30.04F
$$
MNZ033>034-036-042>043-049>051-058-059-122000-
   Central Minnesota

CITY           SKY/WX    TMP DP  RH WIND       PRES   REMARKS
ST CLOUD       CLOUDY    75  63  66 NW7       30.00S
SAUK CENTRE    LGT RAIN  67  64  89 W6        30.04S
PAYNESVILLE    HVY RAIN  69  62  81 SW12      30.04S
AITKIN         CLOUDY    73  63  68 CALM      29.99S
PINE RIVER     CLOUDY    72  61  68 SW6       30.03F
BRAINERD       CLOUDY    76  60  57 W9        30.01S
STAPLES        CLOUDY    70  59  68 W9        30.02F
LONG PRAIRIE   CLOUDY    66  63  88 SW6       30.04F
LITTLE FALLS   CLOUDY    68  61  77 W7        30.02F
LITCHFIELD     LGT RAIN  72  70  94 W6        30.04R
BUFFALO        LGT RAIN  71  63  75 SW6       30.03R
MAPLE LAKE     LGT RAIN  72  66  82 CALM      30.03R
$$
MNZ037-044-045-052-053-122000-
   East Central Minnesota

CITY           SKY/WX    TMP DP  RH WIND       PRES   REMARKS
PRINCETON      CLOUDY    75  64  69 W3        30.00R
MORA           CLOUDY    70  61  73 NW5       30.01S
CAMBRIDGE      CLOUDY    77  63  61 W3        29.98R
RUSH CITY      CLOUDY    74  63  68 CALM      29.99R
MOOSE LAKE     CLOUDY    72  61  68 CALM      29.96F
HINCKLEY       FAIR      73  63  68 NW3       29.98S
CLOQUET        CLOUDY    72  57  60 W5        29.98S
MCGREGOR       CLOUDY    72  59  64 W5        29.99F
$$
MNZ071>073-080-081-089-090-097-098-122000-
   Southwest Minnesota

CITY           SKY/WX    TMP DP  RH WIND       PRES   REMARKS
MONTEVIDEO     LGT RAIN  70  70 100 N7        30.04F
GRANITE FALLS  CLOUDY    68  63  83 NW10      30.05S
CANBY          LGT RAIN  68  65  90 CALM      30.06F
MARSHALL       CLOUDY    68  63  83 NW13      30.04S
REDWOOD FALLS  LGT RAIN  70  67  90 N6        30.03S
OLIVIA         CLOUDY    70  64  83 NW8       30.04R
PIPESTONE      PTSUNNY   75  63  64 NE7       30.05F
WINDOM         CLOUDY    79  64  61 N6        30.04S
WORTHINGTON    CLOUDY    73  66  78 N8        30.06F
JACKSON        CLOUDY    73  63  68 SW5       30.05F
TRACY          CLOUDY    69  66  89 CALM      30.04F
SLAYTON        PTSUNNY   73  65  76 CALM      30.06S
$$
MNZ065>067-074>077-082>085-091>093-122000-
   South Central Minnesota

CITY           SKY/WX    TMP DP  RH WIND       PRES   REMARKS
MANKATO        CLOUDY    68  64  88 N6        30.03F
NEW ULM        CLOUDY    72  66  83 NW3       30.02S
ST JAMES       CLOUDY    75  64  69 NW3       30.03F
FAIRMONT       CLOUDY    73  63  68 W10       30.04F
GLENCOE        LGT RAIN  72  68  87 NW6       30.02R
FARIBAULT      LGT RAIN  79  66  65 W13       30.03F
OWATONNA       CLOUDY    75  64  69 SW14      30.02F
WASECA         CLOUDY    73  63  68 SW9       30.05S
ALBERT LEA     RAIN      68  66  94 CALM      30.04S
$$
MNZ078>079-086>088-094>096-122000-
   Southeast Minnesota

CITY           SKY/WX    TMP DP  RH WIND       PRES   REMARKS
ROCHESTER      RAIN      67  63  87 NW9       30.05R FOG
RED WING       LGT RAIN  75  72  88 SW12G17   29.97F
STANTON        RAIN      71  65  83 SW8       30.00S
DODGE CENTER   CLOUDY    70  64  83 SW6       30.03F
WINONA         DRIZZLE   73  72  94 CALM      29.99S
AUSTIN         HVY RAIN  66  64  94 SW9       30.07R
PRESTON        LGT RAIN  72  68  88 NW9       30.03R
$$
ABBREVIATIONS USED IN REMARKS
   TC - TEMPERATURES IN CELSIUS
  WCI - WIND CHILL INDEX
   HX - HEAT INDEX
  VSB - VISIBILITY
$$



USA.gov is the U.S. government's official web portal to all federal, state and local government web resources and services.